Regional Weather Roundup
Issued by NWS

Home | Current Version | Previous Version | Graphics & Text | Print | Product List | Glossary On
Versions: 1 2 3 4 5 6 7 8 9 10 11 12 13 14 15 16 17 18 19 20 21 22 23 24 25 26 27 28 29 30 31 32 33 34 35 36 37 38 39 40 41 42 43 44 45 46 47 48 49 50
000
ASUS44 KMEG 290610
RWRTN
TENNESSEE HOURLY STATE WEATHER ROUNDUP
NATIONAL WEATHER SERVICE MEMPHIS TN
1200 AM CST THU JAN 29 2015

TNZ002-004-019-021-049-052-054-088>092-290700-
WEST TENNESSEE

CITY           SKY/WX    TMP DP  RH WIND       PRES   REMARKS
MEMPHIS INTL   PTCLDY    53  34  48 S15G22    30.07S
NWS MEMPHIS      N/A     52 N/A N/A MISG        N/A
JACKSON        MOCLDY    51  29  42 S17G26    30.05F
DYERSBURG      MOCLDY    48  27  43 S9        30.05S
UNION CITY     PTCLDY    45  32  61 S9        30.01F
PARIS          CLEAR     45  28  53 S14       30.04F
LEXINGTON      CLEAR     45  28  53 S9        30.08F
SAVANNAH       CLEAR     45  28  53 S9        30.13F
$$

TNZ008-025-027-028-033-062-065-066-290700-
NORTH MIDDLE TENNESSEE

CITY           SKY/WX    TMP DP  RH WIND       PRES   REMARKS
NASHVILLE      MOCLDY    44  28  53 S12       30.14S
CLARKSVILLE    CLOUDY    43  28  55 S7        30.07F
SMYRNA         PTCLDY    40  27  60 S5        30.17S
COOKEVILLE     CLEAR     39  16  38 S9        30.14F WCI  33
CROSSVILLE     CLEAR     35  11  36 S6        30.18F WCI  30
$$

TNZ061-075-076-078-094-096-097-290700-
SOUTH MIDDLE TENNESSEE

CITY           SKY/WX    TMP DP  RH WIND       PRES   REMARKS
FAYETTEVILLE   CLEAR     41  21  45 MISG      30.18F
TULLAHOMA      CLEAR     39  19  45 S5        30.17F
WINCHESTER     CLEAR     37  21  52 SE3       30.20F
MCMINNVILLE    CLEAR     34  25  69 CALM      30.16F
COLUMBIA       CLEAR     45  30  57 S9        30.13F
SHELBYVILLE    CLEAR     43  25  49 SE6       30.17F
$$

TNZ017-018-042-046-047-290700-
NORTHEAST TENNESSEE

CITY           SKY/WX    TMP DP  RH WIND       PRES   REMARKS
TRI CITIES     PTCLDY    23  20  88 CALM      30.23F
ELIZABETHTON   CLEAR     27  19  74 NE5       30.23S WCI  21
$$

TNZ012-013-036-069-073-074-290700-
CENTRAL EAST TENNESSEE

CITY           SKY/WX    TMP DP  RH WIND       PRES   REMARKS
KNOXVILLE      MOCLDY    29  22  75 W3        30.24R
OAK RIDGE      CLEAR     29  23  78 CALM      30.26R
GATLINBURG     CLEAR     25  19  80 CALM      30.23R
MORRISTOWN     CLEAR     28  19  69 CALM      30.22F
$$

TNZ083-085-099-290700-
SOUTHEAST TENNESSEE

CITY           SKY/WX    TMP DP  RH WIND       PRES   REMARKS
CHATTANOOGA    CLEAR     32  24  72 CALM      30.26R
$$

SKY/WX REPORTED AS FAIR MEANS FEW OR NO CLOUDS BELOW
12 THOUSAND FEET.




USA.gov is the U.S. government's official web portal to all federal, state and local government web resources and services.